This is the latest recevied weather packets stored in our database for station/object KE8WAY. If no packets are shown the sender has not sent any weather packets the latest 10 day(s).
| Time | Temp. | Humidity | Pressure | Rain* | Wind** | Luminosity | Snow |
|---|---|---|---|---|---|---|---|
| 1778115653 | 10.56° C | 61% | 1012 hPa | 0 mm | - | 0 W/m² | - |
| 1778115351 | 10.56° C | 57% | 1011.9 hPa | 0 mm | - | 0 W/m² | - |
| 1778115047 | 10.56° C | 58% | 1011.9 hPa | 0 mm | - | 0 W/m² | - |
| 1778114744 | 11.11° C | 58% | 1011.7 hPa | 0 mm | - | 0 W/m² | - |
| 1778114441 | 10.56° C | 57% | 1011.9 hPa | 0 mm | - | 0 W/m² | - |
| 1778114137 | 10.56° C | 58% | 1011.7 hPa | 0 mm | - | 0 W/m² | - |
| 1778113832 | 11.11° C | 57% | 1011.7 hPa | 0 mm | - | 1 W/m² | - |
| 1778113528 | 11.11° C | 56% | 1011.8 hPa | 0 mm | - | 4 W/m² | - |
| 1778113219 | 11.11° C | 56% | 1011.7 hPa | 0 mm | - | 5 W/m² | - |
| 1778112916 | 11.67° C | 55% | 1011.8 hPa | 0 mm | - | 7 W/m² | - |
| 1778112614 | 11.67° C | 52% | 1012 hPa | 0 mm | - | 9 W/m² | - |
| 1778112309 | 11.67° C | 51% | 1012 hPa | 0 mm | - | 16 W/m² | - |
| 1778112005 | 11.67° C | 48% | 1011.9 hPa | 0 mm | - | 19 W/m² | - |
| 1778111703 | 11.67° C | 51% | 1012.1 hPa | 0 mm | - | 19 W/m² | - |
| 1778111398 | 11.67° C | 50% | 1012 hPa | 0 mm | - | 25 W/m² | - |
| 1778111095 | 11.67° C | 50% | 1012.2 hPa | 0 mm | - | 28 W/m² | - |
| 1778110793 | 11.67° C | 50% | 1011.9 hPa | 0 mm | - | 33 W/m² | - |
| 1778110489 | 12.22° C | 46% | 1012 hPa | 0 mm | - | 41 W/m² | - |
| 1778110186 | 12.22° C | 46% | 1011.7 hPa | 0 mm | - | 45 W/m² | - |
| 1778109883 | 12.22° C | 43% | 1011.8 hPa | 0 mm | - | 48 W/m² | - |
| 1778109578 | 12.78° C | 44% | 1011.9 hPa | 0 mm | - | 52 W/m² | - |
| 1778109276 | 12.78° C | 43% | 1011.8 hPa | 0 mm | - | 57 W/m² | - |
| 1778108973 | 12.78° C | 44% | 1011.8 hPa | 0 mm | - | 57 W/m² | - |
| 1778108669 | 12.78° C | 45% | 1012 hPa | 0 mm | - | 65 W/m² | - |
| 1778108366 | 12.78° C | 42% | 1011.9 hPa | 0 mm | - | 75 W/m² | - |
* Rain latest hour (hover to see other rain measurements)
** Current wind speed in m/s (hover to see current wind gust speed)